STARLINK-35821 (66372 NORAD) Tracking and Keplerian Element Data

This shows tracking and keplerian element data for the satellite.

Feedback or suggestion? Click here.




ElementValue
Catalog66372
NameSTARLINK-35821
Epoch Orbit595
Epoch Day354.25003472
Epoch Year2025
RAAN239.0995
Inclination53.159
Eccentricity0.0001257
Argument of Perigee80.1133
Mean Anonmoly346.7091
Mean Motion15.35768248
Decay Rate-0.02436358
L11 66372U 25254AA 25354.25003472 -.02436358 00000+0 -77944-1 0 9998
L22 66372 53.1590 239.0995 0001257 80.1133 346.7091 15.35768248 5955



Live tracking and technical data element details for STARLINK-35821 (NORAD 66372). STARLINK-35821 can be tracked NOW for your location showing map with azimuth and elevation plus other details from your city location.







IsCatalogInMostPopularTable: catalog: 66372, numindb: 10
Update: records affected: 1



GetName: 66372 STARLINK-35821

Hit Count: updated at: Wed, 15 Apr 2026 01:18:20 GMT